| time (UTC) | temp C | wind direction | speed KPH | gust KPH | rain 1hr cm | rain 24hr cm | rain mn cm | humidity % | barometer mb |
| 20260506180033 | 12 | 178 | 9.7 | 22.5 | 0.00 | 0.25 | 0.25 | 82 | 1013.3 |
| 20260506174533 | 12 | 136 | 8.0 | 20.9 | 0.00 | 0.25 | 0.25 | 82 | 1014.0 |
| 20260506173028 | 12 | 153 | 8.0 | 24.1 | 0.00 | 0.25 | 0.25 | 82 | 1014.6 |
| 20260506171539 | 12 | 170 | 6.4 | 20.9 | 0.00 | 0.25 | 0.25 | 82 | 1014.8 |
| 20260506170027 | 12 | 161 | 9.7 | 24.1 | 0.00 | 0.25 | 0.25 | 82 | 1014.3 |
| 20260506164528 | 12 | 159 | 9.7 | 24.1 | 0.03 | 0.25 | 0.25 | 82 | 1014.8 |
| 20260506163028 | 12 | 119 | 8.0 | 16.1 | 0.25 | 0.25 | 0.25 | 82 | 1015.0 |
| 20260506161532 | 12 | 0 | 3.2 | 14.5 | 0.25 | 0.25 | 0.25 | 83 | 1015.1 |
| 20260506160032 | 12 | 280 | 3.2 | 19.3 | 0.25 | 0.25 | 0.25 | 82 | 1014.6 |
| 20260506154533 | 12 | 167 | 12.9 | 24.1 | 0.23 | 0.23 | 0.23 | 79 | 1014.0 |
| 20260506153027 | 12 | 0 | 1.6 | 14.5 | 0.00 | 0.00 | 0.00 | 77 | 1016.5 |
| 20260506151533 | 12 | 73 | 4.8 | 16.1 | 0.00 | 0.00 | 0.00 | 77 | 1015.3 |
| 20260506150028 | 12 | 232 | 3.2 | 22.5 | 0.00 | 0.00 | 0.00 | 77 | 1015.0 |
| 20260506144539 | 12 | 96 | 4.8 | 16.1 | 0.00 | 0.00 | 0.00 | 77 | 1015.1 |
| 20260506143028 | 12 | 146 | 9.7 | 17.7 | 0.00 | 0.00 | 0.00 | 77 | 1014.7 |
| 20260506141530 | 12 | 117 | 8.0 | 19.3 | 0.00 | 0.00 | 0.00 | 76 | 1014.4 |
| 20260506140033 | 12 | 146 | 8.0 | 17.7 | 0.00 | 0.00 | 0.00 | 76 | 1014.0 |
| 20260506134528 | 12 | 89 | 6.4 | 24.1 | 0.00 | 0.00 | 0.00 | 76 | 1014.0 |
| 20260506133031 | 12 | 142 | 6.4 | 17.7 | 0.00 | 0.00 | 0.00 | 77 | 1013.8 |
| 20260506131534 | 12 | 120 | 4.8 | 16.1 | 0.00 | 0.00 | 0.00 | 78 | 1013.6 |
| 20260506130030 | 12 | 111 | 11.3 | 22.5 | 0.00 | 0.00 | 0.00 | 77 | 1013.5 |
| 20260506124533 | 12 | 82 | 8.0 | 20.9 | 0.00 | 0.00 | 0.00 | 76 | 1013.3 |
| 20260506123029 | 12 | 167 | 6.4 | 22.5 | 0.00 | 0.00 | 0.00 | 76 | 1013.2 |
| 20260506121527 | 12 | 166 | 9.7 | 22.5 | 0.00 | 0.00 | 0.00 | 75 | 1013.0 |
| 20260506120029 | 12 | 172 | 9.7 | 22.5 | 0.00 | 0.00 | 0.00 | 74 | 1013.1 |
| 20260506114536 | 12 | 171 | 9.7 | 20.9 | 0.00 | 0.00 | 0.00 | 73 | 1012.5 |
| 20260506113028 | 12 | 122 | 4.8 | 22.5 | 0.00 | 0.00 | 0.00 | 73 | 1012.3 |
| 20260506111529 | 12 | 60 | 11.3 | 32.2 | 0.00 | 0.00 | 0.00 | 72 | 1012.0 |
| 20260506110033 | 13 | 135 | 8.0 | 20.9 | 0.00 | 0.00 | 0.00 | 71 | 1011.9 |
| 20260506104526 | 13 | 98 | 8.0 | 17.7 | 0.00 | 0.00 | 0.00 | 71 | 1011.6 |
| 20260506103029 | 13 | 148 | 6.4 | 19.3 | 0.00 | 0.00 | 0.00 | 70 | 1011.1 |
| 20260506101526 | 13 | 142 | 8.0 | 17.7 | 0.00 | 0.00 | 0.00 | 70 | 1010.9 |
| 20260506100029 | 13 | 128 | 8.0 | 20.9 | 0.00 | 0.00 | 0.00 | 70 | 1010.8 |
| 20260506094529 | 13 | 149 | 8.0 | 16.1 | 0.00 | 0.00 | 0.00 | 70 | 1010.7 |
| 20260506093028 | 14 | 158 | 4.8 | 16.1 | 0.00 | 0.00 | 0.00 | 70 | 1010.6 |
| 20260506091526 | 14 | 159 | 6.4 | 14.5 | 0.00 | 0.00 | 0.00 | 70 | 1010.6 |
| 20260506090025 | 14 | 96 | 8.0 | 17.7 | 0.00 | 0.00 | 0.00 | 70 | 1010.2 |
| 20260506084527 | 14 | 155 | 4.8 | 14.5 | 0.00 | 0.00 | 0.00 | 71 | 1010.1 |
| 20260506083027 | 14 | 145 | 4.8 | 12.9 | 0.00 | 0.00 | 0.00 | 71 | 1010.0 |
| 20260506081528 | 14 | 180 | 4.8 | 14.5 | 0.00 | 0.00 | 0.00 | 71 | 1009.6 |
| 20260506073029 | 15 | 165 | 6.4 | 19.3 | 0.00 | 0.00 | 0.00 | 72 | 1009.8 |
| 20260506071528 | 15 | 155 | 11.3 | 19.3 | 0.00 | 0.00 | 0.00 | 72 | 1010.0 |
| 20260506061528 | 16 | 152 | 4.8 | 17.7 | 0.00 | 0.00 | 0.00 | 73 | 1009.6 |
| 20260506044537 | 18 | 165 | 6.4 | 17.7 | 0.00 | 0.00 | 0.00 | 72 | 1009.4 |
| 20260506043027 | 18 | 198 | 8.0 | 22.5 | 0.00 | 0.00 | 0.00 | 71 | 1009.3 |
| 20260506041528 | 19 | 113 | 9.7 | 20.9 | 0.00 | 0.00 | 0.00 | 71 | 1008.6 |
| 20260506040029 | 20 | 124 | 8.0 | 17.7 | 0.00 | 0.00 | 0.00 | 71 | 1008.8 |
| 20260506034528 | 20 | 136 | 4.8 | 22.5 | 0.00 | 0.00 | 0.00 | 71 | 1008.7 |
| 20260506033034 | 21 | 164 | 8.0 | 22.5 | 0.00 | 0.00 | 0.00 | 70 | 1008.4 |
| 20260506031535 | 21 | 140 | 6.4 | 17.7 | 0.00 | 0.00 | 0.00 | 69 | 1008.0 |
| 20260506030050 | 21 | 159 | 8.0 | 20.9 | 0.00 | 0.00 | 0.00 | 69 | 1007.8 |
| 20260506024531 | 22 | 112 | 11.3 | 20.9 | 0.00 | 0.00 | 0.00 | 68 | 1007.4 |
| 20260506023033 | 23 | 136 | 9.7 | 17.7 | 0.00 | 0.00 | 0.00 | 68 | 1007.0 |
| 20260506021528 | 23 | 105 | 3.2 | 11.3 | 0.00 | 0.00 | 0.00 | 67 | 1006.5 |
| 20260506020028 | 23 | 107 | 3.2 | 11.3 | 0.00 | 0.00 | 0.00 | 66 | 1006.5 |
| 20260506014528 | 23 | 118 | 4.8 | 16.1 | 0.00 | 0.00 | 0.00 | 65 | 1006.2 |
| 20260506013031 | 24 | 100 | 3.2 | 17.7 | 0.00 | 0.00 | 0.00 | 64 | 1005.9 |
| 20260506011536 | 24 | 138 | 3.2 | 19.3 | 0.00 | 0.00 | 0.00 | 63 | 1005.9 |
| 20260506010026 | 25 | 149 | 9.7 | 20.9 | 0.00 | 0.00 | 0.00 | 62 | 1005.5 |
| 20260506004543 | 26 | 134 | 6.4 | 14.5 | 0.00 | 0.00 | 0.00 | 61 | 1005.4 |
| 20260506003034 | 27 | 142 | 8.0 | 19.3 | 0.00 | 0.00 | 0.00 | 60 | 1005.0 |
| 20260506001531 | 27 | 54 | 6.4 | 20.9 | 0.00 | 0.00 | 0.00 | 59 | 1005.1 |
| 20260506000026 | 28 | 80 | 1.6 | 8.0 | 0.00 | 0.00 | 0.00 | 63 | 1004.6 |
| 20260505234526 | 28 | 13 | 4.8 | 20.9 | 0.00 | 0.00 | 0.00 | 68 | 1004.5 |
| 20260505233029 | 28 | 329 | 8.0 | 24.1 | 0.00 | 0.00 | 0.00 | 68 | 1004.2 |
| 20260505231529 | 28 | 313 | 8.0 | 19.3 | 0.00 | 0.00 | 0.00 | 67 | 1004.1 |
| 20260505230048 | 28 | 339 | 6.4 | 17.7 | 0.00 | 0.00 | 0.00 | 67 | 1003.8 |
| 20260505224533 | 28 | 315 | 9.7 | 19.3 | 0.00 | 0.00 | 0.00 | 67 | 1004.0 |
| 20260505223027 | 30 | 285 | 8.0 | 19.3 | 0.00 | 0.00 | 0.00 | 64 | 1003.8 |
| 20260505221530 | 30 | 288 | 9.7 | 19.3 | 0.00 | 0.00 | 0.00 | 63 | 1003.7 |
| 20260505220032 | 31 | 292 | 4.8 | 14.5 | 0.00 | 0.00 | 0.00 | 61 | 1003.9 |
| 20260505214534 | 31 | 343 | 4.8 | 22.5 | 0.00 | 0.00 | 0.00 | 53 | 1003.9 |
| 20260505213033 | 31 | 307 | 6.4 | 19.3 | 0.00 | 0.00 | 0.00 | 58 | 1003.9 |
| 20260505211528 | 31 | 327 | 6.4 | 19.3 | 0.00 | 0.00 | 0.00 | 58 | 1004.2 |
| 20260505210029 | 31 | 355 | 9.7 | 20.9 | 0.00 | 0.00 | 0.00 | 57 | 1004.2 |
| 20260505204533 | 31 | 341 | 8.0 | 22.5 | 0.00 | 0.00 | 0.00 | 59 | 1004.5 |
| 20260505203034 | 30 | 335 | 9.7 | 20.9 | 0.00 | 0.00 | 0.00 | 61 | 1004.6 |
| 20260505201534 | 30 | 326 | 9.7 | 24.1 | 0.00 | 0.00 | 0.00 | 61 | 1004.7 |
| 20260505200032 | 30 | 337 | 11.3 | 25.7 | 0.00 | 0.00 | 0.00 | 62 | 1004.7 |
| 20260505194528 | 29 | 10 | 8.0 | 25.7 | 0.00 | 0.00 | 0.00 | 63 | 1004.8 |
| 20260505193028 | 28 | 355 | 11.3 | 25.7 | 0.00 | 0.00 | 0.00 | 63 | 1004.8 |
| 20260505191529 | 28 | 5 | 9.7 | 25.7 | 0.00 | 0.00 | 0.00 | 66 | 1005.0 |
| 20260505190037 | 28 | 315 | 11.3 | 24.1 | 0.00 | 0.00 | 0.00 | 64 | 1005.0 |
| 20260505184531 | 27 | 345 | 11.3 | 25.7 | 0.00 | 0.00 | 0.00 | 66 | 1005.1 |
| 20260505183030 | 27 | 360 | 14.5 | 27.4 | 0.00 | 0.00 | 0.00 | 66 | 1005.1 |
| 20260505181532 | 27 | 344 | 12.9 | 24.1 | 0.00 | 0.00 | 0.00 | 66 | 1005.2 |